Details for Korean Air at RKSI




Go Back


Latest METAR
Local Time

RKSI 181300Z 32004KT 280V350 CAVOK 23/11 Q1015 NOSIG
18/09/2018, 22:16:49

Description
Results
Korean Air Logo
Number of Pilots based at RKSI
0 Pilots Based here
Number of Korean Air Flights Departed from RKSI
1 Flights Departed
Number of Korean Air Flights Arrived at RKSI
0 Flights Arrived
Number of Korean Air Schedules Departing from RKSI
134 Schedules
Number of Korean Air Schedules Arriving at RKSI
133 Schedules
Number of Korean Air Schedules Departing from RKSI availible today
102 Schedules Today
Number of Korean Air Schedules Arriving at RKSI availible today
105 Schedules Today
Average Landing Rate at RKSI
-325 fpm
Korean Air Average Landing Rate at RKSI
0 fpm
Total Fuel Purchased at RKSI by Korean Air
11,977.56 kgs / 26,405.73 lbs

Pilots Based at RKSI


Pilot ID
Pilot Name
Pilot Rank
No. of Flights
No. of Flying Hours
There are no pilots assigned to this hub!   Will you be the first?
Content